Weather History for KGNR - August, 2013

Change the Weather History Date:

Saturday, August 3, 2013

  Actual Average (KMLT) Record (KMLT)
Temperature  
Mean Temperature 60 °F 67 °F  
Max Temperature 68 °F 78 °F 100 °F (1975)
Min Temperature 55 °F 57 °F 39 °F (1921)
Degree Days  
Heating Degree Days 4 1  
Month to date heating degree days 3  
Since 1 June heating degree days 143  
Since 1 July heating degree days 27  
Cooling Degree Days 0 3  
Month to date cooling degree days 9  
Year to date cooling degree days 181  
Since 1 June cooling degree days 175  
Growing Degree Days 10 (Base 50)    
Moisture  
Dew Point 55 °F    
Average Humidity 81    
Maximum Humidity 96    
Minimum Humidity 63    
Precipitation  
Precipitation 0.13 in 0.12 in 1.62 in (1938)
Month to date precipitation 0.39  
Year to date precipitation 23.38  
Sea Level Pressure  
Sea Level Pressure 29.76 in    
Wind  
Wind Speed 2 mph (NW)    
Max Wind Speed 13 mph    
Max Gust Speed 18 mph    
T = Trace of Precipitation, MM = Missing Value Source: NWS Daily Summary

Daily Weather History Graph

Daily Weather History Graph

Search for Another Location

Airport or City:

Trip Planner

Search our weather history database for the weather conditions in past years. The results will help you decide how hot, cold, wet, or windy it might be!

Date:

Astronomy

Aug. 03, 2013 Rise Set
Actual Time 5:24 AM EDT 8:03 PM EDT
Civil Twilight 4:51 AM EDT 8:37 PM EDT
Nautical Twilight 4:08 AM EDT 9:19 PM EDT
Astronomical Twilight 3:19 AM EDT 10:08 PM EDT
Moon 2:29 AM EDT (8/3) 5:44 PM EDT (8/3)
Length of Visible Light 15h 45m
Length of Day
14h 38m
Waning Crescent, 9% of the Moon is Illuminated
Aug 3
Waning Crescent
Aug 6
New
Aug 14
First Quarter
Aug 20
Full
Aug 28
Last Quarter

Hourly Weather History & Observations

Time (EDT) Temp. Dew Point Humidity Pressure Visibility Wind Dir Wind Speed Gust Speed Precip Events Conditions
12:56 AM 57.0 °F 55.9 °F 96% 29.81 in - Calm Calm - N/A   Unknown
1:56 AM 55.9 °F 54.0 °F 93% 29.79 in - Calm Calm - N/A   Unknown
2:56 AM 55.0 °F 53.1 °F 93% 29.79 in - Calm Calm - N/A   Unknown
3:56 AM 57.0 °F 54.0 °F 89% 29.78 in - South 3.5 mph - N/A   Unknown
4:56 AM 55.9 °F 54.0 °F 93% 29.77 in - Calm Calm - N/A   Unknown
5:56 AM 55.0 °F 53.1 °F 93% 29.77 in - Calm Calm - N/A   Unknown
6:56 AM 60.1 °F 55.9 °F 86% 29.77 in - Calm Calm - N/A   Unknown
7:56 AM 60.1 °F 55.9 °F 86% 29.79 in - Calm Calm - N/A   Unknown
8:56 AM 59.0 °F 55.9 °F 90% 29.78 in - Calm Calm - 0.02 in   Unknown
9:56 AM 60.1 °F 57.0 °F 90% 29.76 in - Calm Calm - 0.01 in   Unknown
10:56 AM 64.0 °F 57.0 °F 78% 29.76 in - Calm Calm - N/A   Unknown
11:56 AM 64.0 °F 55.9 °F 75% 29.75 in - NNW 12.7 mph 18.4 mph N/A   Unknown
12:56 PM 66.0 °F 57.9 °F 75% 29.72 in - NW 8.1 mph - 0.10 in   Unknown
1:56 PM 66.9 °F 55.9 °F 68% 29.71 in - NNW 11.5 mph 16.1 mph N/A   Unknown
2:56 PM 64.0 °F 53.1 °F 67% 29.72 in - Variable 4.6 mph - N/A   Unknown
3:56 PM 64.0 °F 51.1 °F 63% 29.73 in - Variable 4.6 mph - N/A   Unknown
4:56 PM 66.9 °F 54.0 °F 63% 29.72 in - Variable 5.8 mph - N/A   Unknown
5:56 PM 64.0 °F 54.0 °F 70% 29.73 in - Variable 4.6 mph - N/A   Unknown
6:56 PM 63.0 °F 54.0 °F 72% 29.73 in - Variable 3.5 mph - N/A   Unknown
7:56 PM 60.1 °F 53.1 °F 78% 29.75 in - Calm Calm - N/A   Unknown
8:56 PM 61.0 °F 54.0 °F 78% 29.76 in - Variable 3.5 mph - N/A   Unknown
9:56 PM 60.1 °F 54.0 °F 80% 29.76 in - Calm Calm - N/A   Unknown
10:56 PM 57.0 °F 54.0 °F 89% 29.76 in - Variable 3.5 mph - N/A   Unknown
11:56 PM 57.0 °F 54.0 °F 89% 29.75 in - NW 4.6 mph - N/A   Unknown